GEFSGL_prec_meanprec_276.txt.gz
QPF
0.01 0.01 0.01 0.01 0.01 0.00 0.00 0.01 0.01 0.01 0.01 0.01 0.02 0.01 0.02 0.03 0.02 0.02 0.02 0.02 0.02 0.02 0.02 0.02 0.01 0.01 0.01 0.01 0.01 0.02 0.03 0.04 0.04 0.04 0.03 0.03 0.03 0.02 0.03 0.03 0.03 0.03 0.04
0.02 0.01 0.01 0.01 0.01 0.01 0.01 0.02 0.01 0.02 0.02 0.01 0.01 0.01 0.02 0.03 0.03 0.03 0.03 0.03 0.04 0.03 0.03 0.02 0.02 0.01 0.01 0.00 0.01 0.01 0.03 0.05 0.04 0.02 0.02 0.02 0.02 0.02 0.03 0.03 0.04 0.05 0.05
0.02 0.02 0.02 0.01 0.01 0.01 0.01 0.01 0.01 0.01 0.01 0.00 0.01 0.01 0.01 0.02 0.02 0.03 0.02 0.03 0.03 0.03 0.02 0.02 0.02 0.01 0.01 0.01 0.01 0.01 0.01 0.03 0.03 0.03 0.02 0.02 0.02 0.02 0.03 0.03 0.03 0.04 0.05
0.03 0.02 0.02 0.02 0.02 0.02 0.02 0.02 0.01 0.01 0.01 0.00 0.00 0.02 0.01 0.02 0.02 0.03 0.03 0.03 0.03 0.03 0.02 0.02 0.02 0.02 0.02 0.02 0.02 0.01 0.01 0.02 0.02 0.03 0.03 0.02 0.02 0.03 0.03 0.03 0.03 0.03 0.05
0.03 0.02 0.02 0.02 0.03 0.03 0.03 0.03 0.03 0.02 0.02 0.01 0.01 0.01 0.01 0.02 0.03 0.03 0.04 0.04 0.04 0.03 0.03 0.03 0.03 0.04 0.03 0.02 0.02 0.02 0.02 0.02 0.03 0.03 0.03 0.04 0.04 0.03 0.03 0.04 0.04 0.04 0.05
0.02 0.03 0.03 0.03 0.02 0.03 0.03 0.04 0.04 0.02 0.02 0.02 0.01 0.01 0.02 0.03 0.04 0.03 0.04 0.04 0.04 0.04 0.04 0.04 0.04 0.04 0.03 0.02 0.02 0.02 0.02 0.03 0.03 0.03 0.03 0.03 0.03 0.04 0.04 0.05 0.06 0.05 0.04
0.02 0.03 0.02 0.02 0.02 0.02 0.02 0.03 0.03 0.03 0.03 0.03 0.04 0.05 0.05 0.04 0.03 0.02 0.02 0.02 0.02 0.03 0.04 0.04 0.03 0.02 0.02 0.01 0.01 0.02 0.02 0.02 0.02 0.03 0.02 0.02 0.03 0.04 0.03 0.03 0.03 0.02 0.02
0.03 0.04 0.04 0.03 0.02 0.01 0.02 0.03 0.04 0.03 0.03 0.05 0.07 0.06 0.03 0.03 0.03 0.03 0.03 0.03 0.01 0.01 0.02 0.03 0.02 0.01 0.01 0.01 0.01 0.01 0.02 0.02 0.02 0.02 0.02 0.02 0.02 0.03 0.04 0.03 0.02 0.01 0.01
0.05 0.06 0.03 0.02 0.02 0.01 0.02 0.03 0.03 0.04 0.04 0.05 0.04 0.02 0.01 0.01 0.02 0.02 0.03 0.02 0.01 0.00 0.01 0.01 0.02 0.02 0.02 0.02 0.03 0.02 0.02 0.02 0.03 0.03 0.02 0.03 0.03 0.03 0.03 0.03 0.02 0.02 0.01
0.02 0.02 0.02 0.01 0.01 0.01 0.02 0.02 0.03 0.03 0.02 0.03 0.02 0.02 0.01 0.00 0.01 0.02 0.03 0.02 0.01 0.01 0.01 0.01 0.02 0.02 0.03 0.04 0.04 0.04 0.03 0.03 0.04 0.04 0.04 0.04 0.04 0.03 0.04 0.04 0.03 0.03 0.02
0.01 0.01 0.01 0.01 0.01 0.01 0.02 0.02 0.02 0.02 0.01 0.01 0.01 0.02 0.03 0.01 0.01 0.01 0.02 0.02 0.01 0.01 0.02 0.02 0.01 0.02 0.03 0.04 0.05 0.05 0.05 0.06 0.06 0.07 0.07 0.06 0.05 0.04 0.04 0.03 0.03 0.02 0.02
0.01 0.01 0.01 0.02 0.02 0.02 0.02 0.03 0.03 0.01 0.01 0.01 0.02 0.02 0.04 0.03 0.02 0.01 0.02 0.02 0.03 0.02 0.02 0.02 0.02 0.02 0.05 0.07 0.06 0.07 0.09 0.10 0.09 0.08 0.07 0.05 0.04 0.04 0.04 0.05 0.05 0.04 0.04
0.01 0.02 0.03 0.03 0.03 0.03 0.03 0.03 0.03 0.02 0.01 0.01 0.02 0.03 0.04 0.04 0.04 0.03 0.03 0.02 0.03 0.03 0.02 0.03 0.04 0.05 0.07 0.10 0.11 0.11 0.10 0.08 0.05 0.04 0.03 0.03 0.03 0.03 0.03 0.03 0.03 0.03 0.03
0.02 0.03 0.04 0.06 0.06 0.06 0.04 0.03 0.03 0.02 0.02 0.02 0.01 0.01 0.01 0.02 0.02 0.02 0.02 0.01 0.02 0.03 0.03 0.04 0.06 0.07 0.08 0.08 0.08 0.05 0.03 0.02 0.03 0.03 0.03 0.03 0.03 0.03 0.03 0.02 0.02 0.02 0.02
0.02 0.05 0.05 0.07 0.07 0.07 0.06 0.04 0.01 0.01 0.01 0.01 0.01 0.01 0.01 0.01 0.02 0.02 0.01 0.01 0.02 0.03 0.04 0.04 0.04 0.04 0.04 0.06 0.06 0.05 0.04 0.04 0.03 0.03 0.03 0.02 0.02 0.02 0.03 0.03 0.02 0.02 0.01
0.01 0.01 0.02 0.02 0.03 0.03 0.03 0.02 0.01 0.00 0.01 0.01 0.01 0.01 0.01 0.01 0.02 0.01 0.01 0.01 0.02 0.02 0.02 0.02 0.02 0.03 0.03 0.03 0.04 0.05 0.05 0.04 0.03 0.02 0.02 0.02 0.02 0.02 0.03 0.03 0.03 0.02 0.02
0.01 0.01 0.02 0.02 0.01 0.01 0.00 0.01 0.01 0.01 0.01 0.01 0.01 0.01 0.01 0.01 0.01 0.01 0.01 0.01 0.01 0.02 0.01 0.01 0.02 0.02 0.02 0.02 0.03 0.03 0.04 0.03 0.03 0.02 0.02 0.02 0.02 0.02 0.02 0.02 0.02 0.02 0.02
0.02 0.02 0.02 0.02 0.02 0.01 0.01 0.01 0.01 0.01 0.01 0.01 0.01 0.01 0.01 0.01 0.01 0.01 0.02 0.02 0.01 0.02 0.02 0.02 0.02 0.03 0.03 0.03 0.03 0.03 0.04 0.04 0.03 0.02 0.02 0.02 0.02 0.02 0.02 0.02 0.02 0.02 0.02
0.03 0.02 0.02 0.02 0.02 0.02 0.01 0.01 0.01 0.01 0.01 0.01 0.01 0.01 0.02 0.02 0.01 0.01 0.02 0.02 0.02 0.02 0.02 0.03 0.03 0.03 0.03 0.03 0.03 0.03 0.02 0.03 0.03 0.02 0.02 0.03 0.03 0.02 0.02 0.02 0.02 0.02 0.03
0.02 0.03 0.02 0.02 0.02 0.02 0.02 0.01 0.01 0.01 0.01 0.00 0.01 0.01 0.01 0.01 0.01 0.01 0.01 0.01 0.01 0.01 0.01 0.01 0.02 0.02 0.02 0.02 0.02 0.02 0.02 0.03 0.03 0.03 0.03 0.04 0.04 0.03 0.02 0.02 0.02 0.02 0.03
0.02 0.02 0.02 0.02 0.02 0.02 0.02 0.02 0.02 0.01 0.01 0.01 0.01 0.01 0.01 0.01 0.00 0.00 0.00 0.01 0.01 0.01 0.01 0.01 0.02 0.02 0.02 0.02 0.02 0.03 0.03 0.02 0.02 0.02 0.03 0.04 0.05 0.05 0.04 0.02 0.02 0.02 0.03
0.02 0.02 0.02 0.02 0.02 0.02 0.03 0.02 0.02 0.01 0.01 0.01 0.02 0.02 0.01 0.01 0.01 0.01 0.01 0.01 0.01 0.01 0.01 0.01 0.02 0.02 0.02 0.02 0.02 0.03 0.03 0.03 0.03 0.03 0.03 0.03 0.03 0.05 0.05 0.04 0.02 0.02 0.03
0.03 0.03 0.03 0.03 0.03 0.03 0.02 0.02 0.01 0.01 0.01 0.01 0.02 0.02 0.01 0.01 0.01 0.01 0.02 0.02 0.02 0.02 0.02 0.02 0.03 0.03 0.02 0.02 0.02 0.02 0.04 0.05 0.04 0.03 0.03 0.02 0.02 0.03 0.04 0.05 0.04 0.03 0.03
0.03 0.03 0.03 0.03 0.03 0.02 0.01 0.01 0.01 0.01 0.02 0.02 0.02 0.02 0.02 0.02 0.02 0.03 0.03 0.02 0.02 0.02 0.02 0.03 0.03 0.02 0.02 0.02 0.02 0.02 0.02 0.03 0.04 0.05 0.04 0.03 0.03 0.03 0.04 0.05 0.05 0.05 0.05
0.04 0.03 0.03 0.03 0.02 0.02 0.01 0.01 0.01 0.02 0.02 0.03 0.04 0.04 0.04 0.04 0.03 0.03 0.03 0.02 0.02 0.02 0.02 0.02 0.02 0.02 0.02 0.01 0.02 0.02 0.01 0.02 0.02 0.03 0.05 0.05 0.04 0.03 0.03 0.04 0.04 0.04 0.05
0.03 0.03 0.02 0.02 0.02 0.02 0.01 0.01 0.02 0.02 0.02 0.03 0.04 0.05 0.05 0.04 0.04 0.04 0.04 0.03 0.03 0.02 0.02 0.02 0.02 0.02 0.02 0.02 0.02 0.02 0.02 0.01 0.01 0.02 0.03 0.04 0.04 0.03 0.03 0.03 0.04 0.04 0.04

GEFSGL_prec_meanprec_282.txt.gz
QPF
0.00 0.00 0.01 0.01 0.01 0.01 0.01 0.01 0.01 0.01 0.01 0.01 0.02 0.01 0.01 0.01 0.01 0.02 0.02 0.02 0.03 0.03 0.02 0.03 0.03 0.04 0.04 0.03 0.04 0.05 0.05 0.05 0.05 0.04 0.05 0.05 0.05 0.07 0.08 0.07 0.07 0.07 0.07
0.00 0.00 0.01 0.01 0.01 0.01 0.01 0.01 0.01 0.01 0.01 0.01 0.01 0.02 0.01 0.01 0.01 0.01 0.01 0.02 0.03 0.04 0.03 0.02 0.03 0.03 0.04 0.04 0.04 0.04 0.05 0.05 0.05 0.05 0.03 0.03 0.04 0.05 0.06 0.06 0.05 0.05 0.05
0.00 0.00 0.00 0.01 0.01 0.02 0.02 0.01 0.01 0.01 0.01 0.01 0.01 0.01 0.01 0.01 0.01 0.01 0.02 0.02 0.03 0.03 0.02 0.02 0.02 0.02 0.02 0.03 0.03 0.04 0.04 0.03 0.03 0.04 0.03 0.03 0.03 0.04 0.05 0.05 0.04 0.04 0.04
0.00 0.00 0.01 0.01 0.01 0.01 0.01 0.01 0.02 0.02 0.01 0.01 0.01 0.01 0.01 0.02 0.02 0.02 0.04 0.03 0.02 0.02 0.03 0.03 0.02 0.03 0.03 0.03 0.03 0.04 0.04 0.04 0.03 0.02 0.02 0.03 0.03 0.04 0.05 0.04 0.05 0.04 0.03
0.00 0.00 0.01 0.01 0.01 0.01 0.01 0.01 0.02 0.02 0.02 0.02 0.02 0.02 0.02 0.02 0.02 0.03 0.04 0.03 0.02 0.02 0.02 0.02 0.02 0.02 0.02 0.02 0.02 0.03 0.04 0.04 0.03 0.02 0.02 0.02 0.03 0.03 0.04 0.04 0.04 0.05 0.04
0.00 0.01 0.01 0.01 0.01 0.00 0.00 0.01 0.01 0.02 0.02 0.02 0.01 0.02 0.02 0.01 0.02 0.04 0.03 0.03 0.02 0.03 0.03 0.02 0.02 0.02 0.02 0.02 0.01 0.02 0.02 0.02 0.03 0.03 0.03 0.03 0.03 0.04 0.04 0.04 0.04 0.05 0.05
0.00 0.01 0.01 0.01 0.00 0.00 0.00 0.00 0.01 0.01 0.02 0.01 0.01 0.01 0.01 0.01 0.01 0.02 0.03 0.02 0.02 0.02 0.02 0.02 0.02 0.02 0.02 0.02 0.02 0.02 0.02 0.02 0.02 0.03 0.03 0.03 0.03 0.04 0.05 0.04 0.04 0.04 0.04
0.00 0.00 0.00 0.01 0.00 0.00 0.01 0.01 0.01 0.01 0.01 0.01 0.01 0.01 0.01 0.01 0.01 0.03 0.02 0.02 0.01 0.01 0.01 0.02 0.02 0.02 0.01 0.01 0.02 0.02 0.02 0.01 0.02 0.02 0.02 0.03 0.03 0.04 0.05 0.05 0.06 0.05 0.03
0.00 0.01 0.01 0.01 0.01 0.01 0.00 0.01 0.01 0.01 0.01 0.01 0.01 0.01 0.01 0.01 0.01 0.01 0.01 0.01 0.01 0.01 0.01 0.01 0.01 0.01 0.01 0.02 0.01 0.01 0.01 0.01 0.01 0.02 0.03 0.03 0.04 0.04 0.04 0.05 0.05 0.05 0.04
0.01 0.02 0.01 0.01 0.01 0.01 0.01 0.01 0.01 0.01 0.01 0.01 0.01 0.00 0.00 0.00 0.01 0.01 0.01 0.01 0.01 0.00 0.01 0.01 0.01 0.02 0.03 0.03 0.02 0.01 0.01 0.01 0.01 0.02 0.04 0.05 0.05 0.07 0.09 0.08 0.09 0.10 0.08
0.01 0.02 0.02 0.01 0.01 0.01 0.01 0.01 0.01 0.01 0.02 0.02 0.01 0.01 0.00 0.00 0.01 0.01 0.01 0.01 0.01 0.01 0.01 0.01 0.01 0.02 0.03 0.04 0.03 0.01 0.01 0.01 0.01 0.02 0.04 0.05 0.07 0.08 0.08 0.08 0.08 0.08 0.08
0.01 0.01 0.01 0.01 0.01 0.01 0.01 0.02 0.02 0.02 0.02 0.02 0.01 0.01 0.01 0.01 0.00 0.00 0.00 0.00 0.01 0.01 0.01 0.01 0.01 0.02 0.02 0.03 0.04 0.03 0.03 0.03 0.01 0.01 0.02 0.03 0.04 0.05 0.06 0.05 0.04 0.03 0.03
0.01 0.01 0.01 0.01 0.00 0.00 0.00 0.01 0.01 0.01 0.01 0.01 0.02 0.01 0.02 0.02 0.02 0.02 0.02 0.01 0.01 0.00 0.00 0.01 0.01 0.01 0.02 0.03 0.04 0.04 0.04 0.03 0.02 0.02 0.02 0.02 0.02 0.03 0.03 0.03 0.02 0.02 0.02
0.00 0.00 0.00 0.00 0.00 0.00 0.01 0.01 0.01 0.01 0.01 0.01 0.01 0.01 0.02 0.02 0.02 0.02 0.02 0.01 0.01 0.01 0.01 0.01 0.01 0.01 0.02 0.02 0.03 0.04 0.04 0.03 0.03 0.02 0.02 0.03 0.02 0.02 0.02 0.02 0.02 0.03 0.03
0.00 0.00 0.00 0.00 0.00 0.00 0.01 0.02 0.03 0.03 0.03 0.03 0.02 0.02 0.02 0.02 0.01 0.01 0.01 0.01 0.01 0.01 0.00 0.01 0.01 0.01 0.01 0.01 0.01 0.03 0.04 0.04 0.03 0.03 0.03 0.03 0.03 0.02 0.02 0.02 0.02 0.03 0.03
0.00 0.00 0.00 0.00 0.00 0.00 0.00 0.01 0.02 0.03 0.04 0.04 0.04 0.04 0.03 0.02 0.02 0.02 0.02 0.01 0.01 0.01 0.01 0.01 0.01 0.02 0.02 0.01 0.01 0.02 0.02 0.03 0.03 0.03 0.04 0.04 0.03 0.02 0.02 0.02 0.02 0.02 0.02
0.00 0.00 0.00 0.00 0.00 0.01 0.01 0.01 0.02 0.02 0.02 0.03 0.03 0.03 0.03 0.03 0.03 0.03 0.03 0.03 0.03 0.03 0.02 0.01 0.02 0.02 0.02 0.01 0.02 0.02 0.02 0.03 0.03 0.03 0.03 0.03 0.03 0.02 0.02 0.03 0.03 0.02 0.03
0.00 0.00 0.00 0.00 0.00 0.01 0.02 0.02 0.02 0.03 0.03 0.03 0.04 0.04 0.04 0.04 0.03 0.04 0.04 0.04 0.04 0.04 0.03 0.03 0.03 0.03 0.02 0.02 0.02 0.02 0.03 0.03 0.03 0.03 0.03 0.02 0.02 0.02 0.02 0.02 0.03 0.03 0.03
0.01 0.01 0.00 0.00 0.00 0.01 0.02 0.02 0.02 0.03 0.03 0.03 0.04 0.03 0.03 0.04 0.03 0.02 0.03 0.03 0.03 0.03 0.03 0.04 0.03 0.03 0.02 0.02 0.02 0.02 0.03 0.03 0.03 0.04 0.03 0.03 0.03 0.02 0.02 0.03 0.03 0.03 0.03
0.01 0.01 0.01 0.01 0.01 0.02 0.02 0.02 0.02 0.03 0.04 0.04 0.02 0.01 0.02 0.02 0.02 0.02 0.02 0.02 0.02 0.02 0.03 0.03 0.03 0.03 0.03 0.02 0.02 0.02 0.02 0.03 0.03 0.03 0.03 0.03 0.04 0.03 0.02 0.03 0.03 0.03 0.03
0.01 0.01 0.02 0.02 0.03 0.03 0.03 0.03 0.03 0.03 0.02 0.01 0.01 0.01 0.02 0.02 0.03 0.02 0.02 0.02 0.02 0.02 0.03 0.03 0.03 0.03 0.02 0.02 0.02 0.03 0.03 0.03 0.02 0.02 0.03 0.04 0.04 0.04 0.03 0.03 0.03 0.03 0.03
0.02 0.02 0.02 0.03 0.03 0.03 0.03 0.03 0.02 0.01 0.01 0.01 0.02 0.02 0.02 0.02 0.02 0.02 0.01 0.02 0.02 0.03 0.02 0.02 0.02 0.02 0.02 0.02 0.02 0.03 0.03 0.03 0.02 0.02 0.02 0.03 0.04 0.04 0.04 0.03 0.03 0.04 0.04
0.02 0.03 0.03 0.03 0.03 0.03 0.03 0.02 0.02 0.02 0.02 0.02 0.02 0.02 0.02 0.02 0.02 0.02 0.02 0.03 0.03 0.02 0.02 0.02 0.02 0.02 0.02 0.02 0.01 0.02 0.02 0.02 0.02 0.02 0.03 0.03 0.03 0.03 0.04 0.04 0.05 0.05 0.04
0.03 0.03 0.03 0.03 0.03 0.02 0.02 0.02 0.02 0.02 0.02 0.01 0.01 0.01 0.01 0.01 0.02 0.02 0.03 0.02 0.02 0.01 0.01 0.01 0.01 0.01 0.02 0.02 0.02 0.02 0.02 0.02 0.02 0.02 0.02 0.02 0.02 0.03 0.03 0.04 0.04 0.05 0.05
0.05 0.04 0.04 0.04 0.03 0.02 0.02 0.02 0.02 0.02 0.02 0.01 0.01 0.01 0.01 0.02 0.03 0.03 0.03 0.02 0.01 0.01 0.01 0.02 0.02 0.02 0.02 0.02 0.02 0.03 0.02 0.02 0.02 0.02 0.02 0.02 0.03 0.02 0.04 0.05 0.06 0.05 0.05
0.05 0.05 0.05 0.04 0.03 0.02 0.02 0.02 0.02 0.01 0.01 0.01 0.02 0.02 0.03 0.03 0.03 0.02 0.02 0.02 0.02 0.02 0.02 0.02 0.02 0.02 0.02 0.02 0.02 0.02 0.02 0.01 0.01 0.01 0.01 0.02 0.03 0.03 0.03 0.04 0.05 0.06 0.06

GEFSGL_prec_meanprec_288.txt.gz
QPF
0.01 0.02 0.02 0.02 0.02 0.02 0.02 0.02 0.02 0.02 0.03 0.04 0.03 0.04 0.03 0.03 0.05 0.05 0.05 0.05 0.06 0.08 0.08 0.07 0.05 0.06 0.05 0.04 0.05 0.05 0.06 0.07 0.08 0.08 0.08 0.05 0.04 0.04 0.04 0.05 0.05 0.06 0.07
0.01 0.02 0.02 0.01 0.01 0.01 0.01 0.01 0.01 0.01 0.01 0.02 0.03 0.04 0.03 0.03 0.04 0.04 0.04 0.05 0.06 0.05 0.06 0.04 0.04 0.04 0.05 0.05 0.05 0.05 0.05 0.06 0.06 0.07 0.05 0.03 0.03 0.03 0.04 0.04 0.04 0.04 0.05
0.02 0.01 0.02 0.01 0.01 0.01 0.01 0.01 0.01 0.01 0.01 0.01 0.02 0.02 0.03 0.04 0.04 0.04 0.05 0.04 0.05 0.04 0.04 0.04 0.03 0.03 0.03 0.04 0.04 0.04 0.05 0.04 0.06 0.06 0.05 0.04 0.03 0.04 0.03 0.03 0.03 0.05 0.04
0.02 0.01 0.01 0.01 0.00 0.00 0.01 0.01 0.01 0.01 0.01 0.02 0.02 0.01 0.03 0.03 0.03 0.03 0.03 0.03 0.04 0.03 0.03 0.04 0.04 0.04 0.03 0.03 0.04 0.04 0.05 0.06 0.05 0.06 0.07 0.05 0.04 0.05 0.06 0.05 0.05 0.05 0.03
0.02 0.02 0.01 0.00 0.00 0.00 0.01 0.01 0.01 0.01 0.01 0.02 0.02 0.02 0.03 0.03 0.02 0.02 0.02 0.02 0.02 0.02 0.03 0.03 0.04 0.04 0.03 0.04 0.05 0.05 0.07 0.08 0.08 0.07 0.07 0.06 0.05 0.04 0.05 0.06 0.05 0.05 0.03
0.01 0.02 0.01 0.01 0.00 0.01 0.01 0.01 0.01 0.01 0.01 0.02 0.02 0.02 0.02 0.01 0.02 0.01 0.01 0.02 0.02 0.02 0.03 0.03 0.03 0.04 0.03 0.03 0.03 0.03 0.04 0.05 0.06 0.06 0.06 0.06 0.06 0.05 0.07 0.06 0.05 0.04 0.03
0.01 0.02 0.02 0.01 0.01 0.01 0.01 0.01 0.01 0.01 0.01 0.01 0.01 0.02 0.02 0.02 0.03 0.02 0.02 0.03 0.02 0.02 0.02 0.02 0.02 0.02 0.03 0.03 0.03 0.03 0.02 0.03 0.03 0.05 0.05 0.05 0.06 0.06 0.07 0.07 0.07 0.05 0.03
0.02 0.02 0.02 0.02 0.01 0.01 0.01 0.01 0.01 0.01 0.01 0.02 0.01 0.02 0.02 0.02 0.03 0.03 0.02 0.02 0.01 0.02 0.02 0.02 0.02 0.02 0.02 0.03 0.03 0.03 0.03 0.02 0.02 0.03 0.03 0.04 0.04 0.05 0.06 0.06 0.08 0.08 0.06
0.01 0.01 0.01 0.01 0.01 0.01 0.01 0.01 0.01 0.02 0.02 0.02 0.02 0.02 0.02 0.02 0.03 0.02 0.02 0.02 0.01 0.01 0.02 0.02 0.02 0.02 0.02 0.02 0.03 0.03 0.03 0.02 0.02 0.02 0.02 0.03 0.04 0.04 0.04 0.05 0.05 0.07 0.09
0.00 0.01 0.01 0.00 0.00 0.01 0.01 0.01 0.01 0.01 0.01 0.01 0.01 0.00 0.01 0.01 0.01 0.01 0.01 0.01 0.01 0.01 0.02 0.02 0.02 0.03 0.03 0.03 0.04 0.04 0.04 0.03 0.03 0.04 0.04 0.04 0.03 0.04 0.04 0.05 0.05 0.07 0.09
0.01 0.01 0.01 0.01 0.01 0.01 0.01 0.01 0.01 0.01 0.01 0.01 0.01 0.01 0.01 0.01 0.02 0.01 0.01 0.01 0.01 0.01 0.01 0.01 0.02 0.02 0.02 0.03 0.03 0.04 0.04 0.03 0.03 0.03 0.04 0.05 0.04 0.04 0.05 0.06 0.06 0.07 0.06
0.01 0.01 0.02 0.02 0.01 0.01 0.02 0.01 0.02 0.01 0.01 0.01 0.01 0.01 0.01 0.01 0.01 0.01 0.01 0.01 0.01 0.01 0.01 0.02 0.02 0.02 0.02 0.02 0.03 0.02 0.03 0.04 0.03 0.03 0.03 0.04 0.05 0.04 0.05 0.07 0.07 0.06 0.05
0.02 0.02 0.02 0.01 0.02 0.02 0.02 0.02 0.02 0.02 0.02 0.01 0.01 0.01 0.01 0.01 0.01 0.01 0.01 0.02 0.02 0.02 0.02 0.03 0.03 0.02 0.02 0.02 0.02 0.03 0.05 0.06 0.06 0.04 0.04 0.03 0.05 0.06 0.06 0.05 0.05 0.05 0.04
0.01 0.02 0.02 0.02 0.02 0.02 0.02 0.02 0.02 0.02 0.02 0.01 0.02 0.02 0.01 0.01 0.01 0.02 0.02 0.02 0.03 0.03 0.03 0.03 0.02 0.01 0.01 0.02 0.02 0.03 0.04 0.06 0.05 0.05 0.05 0.05 0.05 0.05 0.05 0.03 0.03 0.04 0.04
0.01 0.01 0.02 0.02 0.02 0.03 0.02 0.02 0.02 0.02 0.02 0.02 0.01 0.02 0.02 0.03 0.03 0.03 0.02 0.02 0.03 0.02 0.02 0.02 0.01 0.01 0.02 0.03 0.03 0.04 0.04 0.04 0.05 0.07 0.06 0.06 0.05 0.04 0.03 0.02 0.03 0.03 0.03
0.01 0.01 0.01 0.01 0.03 0.03 0.03 0.03 0.02 0.02 0.01 0.01 0.02 0.02 0.02 0.02 0.02 0.02 0.03 0.02 0.02 0.02 0.02 0.01 0.02 0.03 0.04 0.04 0.05 0.06 0.07 0.09 0.08 0.08 0.07 0.05 0.05 0.04 0.03 0.03 0.04 0.04 0.03
0.02 0.02 0.02 0.02 0.02 0.02 0.02 0.02 0.02 0.01 0.01 0.01 0.01 0.01 0.01 0.01 0.01 0.01 0.01 0.02 0.02 0.02 0.02 0.02 0.03 0.04 0.05 0.06 0.07 0.08 0.09 0.08 0.06 0.05 0.04 0.04 0.04 0.04 0.03 0.03 0.03 0.03 0.03
0.02 0.03 0.02 0.02 0.01 0.01 0.01 0.01 0.01 0.01 0.00 0.00 0.01 0.01 0.01 0.01 0.01 0.01 0.02 0.02 0.02 0.03 0.03 0.04 0.05 0.06 0.07 0.07 0.06 0.05 0.04 0.04 0.04 0.03 0.04 0.04 0.04 0.04 0.04 0.03 0.03 0.03 0.02
0.02 0.02 0.02 0.02 0.01 0.01 0.01 0.01 0.00 0.00 0.01 0.01 0.01 0.01 0.02 0.01 0.01 0.01 0.02 0.02 0.01 0.03 0.04 0.04 0.04 0.05 0.06 0.05 0.03 0.03 0.03 0.04 0.04 0.04 0.03 0.04 0.05 0.05 0.04 0.03 0.03 0.03 0.02
0.02 0.03 0.02 0.01 0.01 0.01 0.01 0.01 0.00 0.00 0.01 0.01 0.01 0.02 0.02 0.02 0.01 0.01 0.02 0.02 0.02 0.02 0.02 0.02 0.03 0.04 0.03 0.03 0.03 0.03 0.04 0.05 0.05 0.05 0.05 0.05 0.06 0.06 0.06 0.04 0.04 0.03 0.03
0.02 0.02 0.02 0.02 0.02 0.02 0.02 0.01 0.01 0.01 0.01 0.01 0.01 0.01 0.02 0.01 0.01 0.01 0.02 0.02 0.02 0.02 0.02 0.02 0.02 0.02 0.02 0.03 0.03 0.04 0.05 0.06 0.07 0.08 0.08 0.07 0.07 0.08 0.09 0.08 0.07 0.05 0.04
0.02 0.03 0.02 0.02 0.02 0.02 0.02 0.02 0.02 0.02 0.02 0.02 0.02 0.02 0.01 0.01 0.01 0.01 0.01 0.01 0.01 0.01 0.01 0.01 0.01 0.01 0.01 0.02 0.02 0.02 0.01 0.02 0.02 0.04 0.04 0.05 0.05 0.06 0.07 0.08 0.08 0.09 0.09
0.04 0.04 0.05 0.04 0.04 0.03 0.03 0.03 0.03 0.02 0.02 0.02 0.02 0.02 0.01 0.01 0.01 0.01 0.01 0.01 0.01 0.01 0.01 0.01 0.01 0.01 0.01 0.01 0.01 0.01 0.01 0.02 0.02 0.02 0.02 0.03 0.03 0.03 0.04 0.04 0.06 0.07 0.08
0.06 0.05 0.05 0.06 0.05 0.04 0.03 0.03 0.03 0.02 0.02 0.02 0.02 0.02 0.02 0.03 0.03 0.02 0.02 0.02 0.02 0.02 0.02 0.01 0.01 0.01 0.01 0.01 0.01 0.02 0.02 0.02 0.01 0.01 0.01 0.02 0.02 0.02 0.03 0.03 0.04 0.05 0.07
0.07 0.06 0.04 0.04 0.05 0.04 0.03 0.03 0.04 0.04 0.04 0.04 0.03 0.02 0.02 0.02 0.03 0.02 0.02 0.02 0.02 0.02 0.02 0.01 0.01 0.01 0.01 0.01 0.01 0.02 0.03 0.04 0.03 0.02 0.02 0.02 0.02 0.02 0.02 0.02 0.03 0.03 0.04
0.06 0.06 0.06 0.05 0.05 0.04 0.03 0.03 0.03 0.04 0.05 0.06 0.06 0.04 0.03 0.02 0.02 0.01 0.01 0.01 0.02 0.02 0.02 0.02 0.02 0.02 0.01 0.01 0.02 0.03 0.04 0.04 0.04 0.04 0.03 0.03 0.03 0.03 0.03 0.03 0.04 0.05 0.05

GEFSGL_prec_meanprec_294.txt.gz
QPF
0.01 0.01 0.02 0.03 0.02 0.03 0.02 0.02 0.01 0.02 0.02 0.03 0.03 0.03 0.02 0.02 0.03 0.04 0.03 0.03 0.03 0.03 0.03 0.03 0.02 0.02 0.02 0.02 0.03 0.04 0.05 0.06 0.05 0.05 0.05 0.05 0.06 0.03 0.03 0.02 0.02 0.03 0.04
0.02 0.03 0.05 0.04 0.04 0.04 0.03 0.02 0.02 0.02 0.02 0.02 0.02 0.03 0.03 0.03 0.04 0.04 0.04 0.03 0.02 0.02 0.02 0.02 0.01 0.01 0.01 0.02 0.03 0.03 0.04 0.05 0.05 0.05 0.05 0.04 0.04 0.04 0.03 0.02 0.02 0.02 0.03
0.03 0.04 0.05 0.06 0.05 0.04 0.03 0.02 0.01 0.01 0.01 0.01 0.01 0.02 0.03 0.04 0.04 0.04 0.04 0.03 0.02 0.01 0.02 0.03 0.02 0.01 0.00 0.01 0.01 0.02 0.03 0.04 0.05 0.04 0.04 0.04 0.04 0.04 0.04 0.02 0.02 0.02 0.03
0.03 0.04 0.04 0.04 0.03 0.03 0.02 0.01 0.01 0.01 0.01 0.01 0.01 0.02 0.02 0.02 0.03 0.04 0.04 0.03 0.02 0.02 0.02 0.02 0.01 0.01 0.00 0.01 0.01 0.02 0.03 0.04 0.05 0.05 0.05 0.05 0.05 0.05 0.04 0.03 0.03 0.02 0.02
0.03 0.03 0.04 0.03 0.02 0.01 0.01 0.01 0.01 0.01 0.01 0.01 0.01 0.01 0.01 0.01 0.02 0.02 0.02 0.02 0.02 0.02 0.02 0.02 0.02 0.01 0.01 0.02 0.02 0.02 0.02 0.03 0.04 0.04 0.05 0.06 0.07 0.06 0.04 0.03 0.03 0.02 0.02
0.02 0.02 0.03 0.03 0.02 0.01 0.01 0.02 0.03 0.03 0.02 0.02 0.01 0.02 0.02 0.01 0.01 0.01 0.01 0.01 0.01 0.01 0.01 0.02 0.02 0.02 0.02 0.02 0.02 0.02 0.03 0.03 0.02 0.03 0.03 0.03 0.04 0.04 0.06 0.07 0.07 0.05 0.03
0.02 0.02 0.01 0.01 0.01 0.01 0.01 0.03 0.03 0.03 0.03 0.02 0.02 0.02 0.01 0.01 0.01 0.01 0.01 0.01 0.01 0.01 0.01 0.02 0.01 0.02 0.02 0.03 0.02 0.02 0.02 0.02 0.02 0.02 0.02 0.03 0.03 0.03 0.04 0.05 0.10 0.11 0.07
0.02 0.01 0.01 0.01 0.02 0.02 0.02 0.03 0.03 0.03 0.02 0.01 0.01 0.01 0.01 0.01 0.01 0.01 0.01 0.01 0.01 0.01 0.01 0.01 0.01 0.01 0.02 0.03 0.03 0.02 0.01 0.01 0.02 0.03 0.03 0.02 0.03 0.04 0.05 0.04 0.05 0.08 0.12
0.02 0.01 0.01 0.01 0.01 0.02 0.02 0.03 0.04 0.03 0.02 0.01 0.01 0.01 0.01 0.01 0.01 0.01 0.01 0.01 0.01 0.01 0.01 0.01 0.01 0.01 0.02 0.03 0.03 0.03 0.03 0.03 0.04 0.04 0.04 0.04 0.05 0.06 0.07 0.07 0.05 0.04 0.05
0.02 0.02 0.02 0.02 0.02 0.01 0.01 0.03 0.04 0.03 0.02 0.02 0.01 0.01 0.01 0.01 0.01 0.01 0.01 0.01 0.01 0.01 0.02 0.02 0.01 0.01 0.02 0.03 0.02 0.03 0.04 0.04 0.05 0.06 0.06 0.06 0.06 0.07 0.07 0.08 0.07 0.07 0.07
0.04 0.04 0.03 0.02 0.02 0.02 0.02 0.02 0.03 0.03 0.02 0.02 0.01 0.01 0.01 0.01 0.02 0.02 0.02 0.02 0.02 0.02 0.02 0.02 0.02 0.02 0.01 0.02 0.02 0.02 0.03 0.03 0.04 0.05 0.05 0.04 0.04 0.03 0.03 0.05 0.06 0.07 0.06
0.04 0.05 0.04 0.03 0.03 0.03 0.03 0.02 0.03 0.02 0.02 0.01 0.02 0.01 0.01 0.02 0.01 0.01 0.02 0.03 0.03 0.02 0.02 0.02 0.01 0.01 0.01 0.01 0.01 0.03 0.04 0.03 0.04 0.04 0.03 0.02 0.02 0.02 0.03 0.04 0.05 0.07 0.06
0.04 0.04 0.05 0.04 0.04 0.04 0.04 0.03 0.03 0.02 0.02 0.02 0.01 0.01 0.01 0.02 0.01 0.02 0.01 0.02 0.02 0.02 0.02 0.02 0.01 0.01 0.01 0.01 0.01 0.02 0.02 0.03 0.04 0.03 0.03 0.02 0.02 0.02 0.03 0.05 0.05 0.06 0.07
0.02 0.03 0.04 0.03 0.03 0.03 0.03 0.03 0.03 0.03 0.04 0.03 0.02 0.01 0.02 0.02 0.01 0.02 0.02 0.01 0.01 0.02 0.02 0.02 0.01 0.01 0.01 0.01 0.02 0.02 0.03 0.04 0.04 0.03 0.03 0.03 0.04 0.04 0.05 0.07 0.10 0.11 0.11
0.04 0.04 0.04 0.04 0.05 0.05 0.04 0.05 0.06 0.06 0.04 0.02 0.02 0.02 0.02 0.02 0.01 0.02 0.02 0.02 0.02 0.03 0.02 0.01 0.01 0.01 0.01 0.01 0.02 0.03 0.03 0.04 0.03 0.03 0.04 0.04 0.05 0.06 0.06 0.05 0.05 0.06 0.08
0.04 0.04 0.04 0.04 0.05 0.05 0.05 0.07 0.07 0.05 0.04 0.03 0.02 0.01 0.01 0.01 0.01 0.01 0.01 0.01 0.02 0.03 0.02 0.01 0.02 0.02 0.01 0.01 0.01 0.02 0.03 0.04 0.04 0.04 0.04 0.04 0.03 0.03 0.03 0.02 0.02 0.03 0.03
0.04 0.03 0.03 0.03 0.03 0.04 0.05 0.05 0.05 0.04 0.03 0.02 0.02 0.02 0.01 0.01 0.01 0.01 0.01 0.01 0.02 0.03 0.02 0.02 0.02 0.02 0.03 0.02 0.02 0.02 0.03 0.04 0.03 0.03 0.03 0.03 0.03 0.03 0.03 0.03 0.03 0.03 0.03
0.03 0.03 0.02 0.02 0.03 0.03 0.03 0.05 0.05 0.04 0.03 0.02 0.02 0.01 0.01 0.01 0.01 0.01 0.01 0.01 0.01 0.01 0.01 0.02 0.02 0.03 0.03 0.03 0.03 0.04 0.04 0.03 0.03 0.02 0.02 0.03 0.03 0.04 0.03 0.03 0.03 0.03 0.04
0.03 0.03 0.02 0.03 0.03 0.04 0.04 0.04 0.04 0.03 0.02 0.02 0.02 0.02 0.02 0.02 0.01 0.01 0.01 0.01 0.01 0.01 0.01 0.02 0.03 0.03 0.03 0.03 0.03 0.03 0.02 0.02 0.02 0.02 0.02 0.02 0.03 0.05 0.06 0.05 0.04 0.04 0.04
0.05 0.05 0.04 0.04 0.04 0.05 0.06 0.07 0.05 0.04 0.03 0.02 0.02 0.02 0.01 0.01 0.01 0.01 0.01 0.01 0.01 0.01 0.02 0.02 0.02 0.02 0.02 0.02 0.02 0.02 0.02 0.02 0.01 0.01 0.01 0.02 0.02 0.03 0.05 0.06 0.06 0.06 0.05
0.04 0.05 0.04 0.04 0.03 0.05 0.07 0.08 0.08 0.06 0.04 0.03 0.02 0.02 0.01 0.01 0.01 0.01 0.01 0.01 0.01 0.01 0.01 0.01 0.01 0.01 0.01 0.02 0.02 0.02 0.02 0.02 0.02 0.01 0.01 0.02 0.02 0.02 0.02 0.04 0.06 0.07 0.08
0.02 0.03 0.03 0.03 0.03 0.04 0.07 0.09 0.10 0.10 0.08 0.05 0.04 0.03 0.02 0.01 0.01 0.01 0.01 0.01 0.01 0.01 0.01 0.01 0.02 0.02 0.03 0.03 0.03 0.03 0.02 0.02 0.02 0.02 0.02 0.01 0.02 0.02 0.01 0.02 0.05 0.07 0.07
0.02 0.02 0.02 0.03 0.03 0.05 0.06 0.08 0.08 0.08 0.12 0.10 0.07 0.04 0.03 0.03 0.02 0.02 0.02 0.02 0.03 0.02 0.02 0.02 0.02 0.03 0.03 0.04 0.04 0.04 0.03 0.02 0.03 0.03 0.03 0.02 0.03 0.02 0.01 0.01 0.02 0.03 0.04
0.02 0.03 0.03 0.03 0.04 0.06 0.07 0.08 0.07 0.06 0.07 0.08 0.08 0.08 0.05 0.04 0.04 0.04 0.04 0.03 0.03 0.03 0.03 0.03 0.03 0.02 0.02 0.03 0.03 0.03 0.03 0.04 0.04 0.04 0.04 0.04 0.04 0.03 0.02 0.01 0.01 0.01 0.01
0.02 0.03 0.04 0.05 0.06 0.07 0.08 0.07 0.06 0.05 0.05 0.05 0.06 0.07 0.06 0.06 0.05 0.04 0.04 0.03 0.03 0.03 0.03 0.03 0.04 0.03 0.03 0.03 0.02 0.02 0.03 0.04 0.04 0.04 0.04 0.04 0.04 0.03 0.02 0.02 0.01 0.01 0.01
0.03 0.03 0.04 0.05 0.06 0.07 0.08 0.09 0.07 0.06 0.05 0.05 0.05 0.06 0.06 0.06 0.05 0.05 0.04 0.04 0.04 0.04 0.04 0.04 0.04 0.04 0.03 0.03 0.03 0.03 0.04 0.04 0.03 0.04 0.05 0.05 0.04 0.03 0.03 0.03 0.02 0.02 0.02

GEFSGL_prec_meanprec_300.txt.gz
QPF
0.02 0.02 0.02 0.02 0.02 0.02 0.02 0.02 0.02 0.03 0.03 0.02 0.03 0.03 0.02 0.02 0.03 0.03 0.03 0.03 0.04 0.05 0.07 0.07 0.05 0.04 0.03 0.03 0.02 0.01 0.01 0.01 0.01 0.01 0.01 0.02 0.03 0.05 0.07 0.06 0.05 0.03 0.02
0.02 0.02 0.02 0.02 0.02 0.02 0.01 0.01 0.01 0.02 0.02 0.01 0.01 0.01 0.02 0.03 0.04 0.03 0.01 0.01 0.01 0.01 0.03 0.04 0.04 0.04 0.03 0.02 0.01 0.01 0.01 0.01 0.01 0.00 0.01 0.00 0.01 0.01 0.03 0.04 0.03 0.03 0.02
0.03 0.02 0.02 0.03 0.02 0.01 0.01 0.01 0.01 0.01 0.01 0.01 0.01 0.01 0.01 0.02 0.03 0.02 0.02 0.01 0.01 0.01 0.01 0.01 0.02 0.02 0.02 0.01 0.01 0.01 0.01 0.01 0.01 0.01 0.00 0.00 0.01 0.01 0.02 0.02 0.02 0.02 0.01
0.02 0.02 0.02 0.02 0.01 0.01 0.02 0.01 0.02 0.01 0.01 0.01 0.01 0.01 0.01 0.01 0.01 0.02 0.02 0.01 0.01 0.01 0.01 0.01 0.01 0.01 0.01 0.01 0.01 0.01 0.01 0.01 0.01 0.01 0.01 0.01 0.01 0.01 0.02 0.02 0.02 0.02 0.02
0.02 0.02 0.02 0.01 0.01 0.02 0.02 0.02 0.02 0.01 0.01 0.01 0.01 0.01 0.00 0.01 0.01 0.01 0.01 0.01 0.01 0.01 0.01 0.01 0.01 0.01 0.01 0.01 0.01 0.01 0.01 0.01 0.01 0.01 0.01 0.01 0.02 0.02 0.02 0.02 0.03 0.03 0.02
0.03 0.02 0.02 0.02 0.02 0.02 0.01 0.02 0.01 0.01 0.00 0.00 0.00 0.00 0.00 0.01 0.01 0.01 0.00 0.01 0.01 0.01 0.01 0.00 0.00 0.01 0.01 0.01 0.01 0.01 0.01 0.02 0.01 0.02 0.02 0.02 0.02 0.02 0.04 0.04 0.03 0.03 0.02
0.03 0.03 0.03 0.02 0.02 0.02 0.02 0.02 0.01 0.00 0.00 0.00 0.00 0.01 0.01 0.01 0.01 0.01 0.01 0.01 0.01 0.01 0.01 0.00 0.01 0.01 0.01 0.01 0.01 0.01 0.01 0.03 0.03 0.03 0.02 0.02 0.02 0.02 0.04 0.04 0.03 0.03 0.03
0.04 0.05 0.05 0.05 0.04 0.04 0.03 0.02 0.01 0.01 0.01 0.01 0.01 0.01 0.01 0.01 0.01 0.01 0.02 0.01 0.01 0.01 0.01 0.01 0.01 0.02 0.03 0.02 0.02 0.01 0.01 0.01 0.02 0.02 0.01 0.01 0.02 0.03 0.03 0.04 0.04 0.04 0.04
0.06 0.06 0.06 0.06 0.06 0.05 0.03 0.02 0.01 0.01 0.01 0.02 0.02 0.02 0.01 0.01 0.02 0.01 0.02 0.02 0.01 0.01 0.01 0.01 0.02 0.02 0.04 0.04 0.02 0.01 0.01 0.01 0.01 0.01 0.01 0.01 0.02 0.03 0.04 0.04 0.04 0.04 0.04
0.05 0.04 0.04 0.04 0.04 0.03 0.03 0.02 0.02 0.02 0.02 0.02 0.02 0.02 0.01 0.01 0.02 0.01 0.01 0.01 0.01 0.01 0.01 0.01 0.02 0.02 0.02 0.03 0.02 0.02 0.01 0.01 0.01 0.01 0.01 0.01 0.02 0.03 0.03 0.02 0.02 0.03 0.03
0.04 0.04 0.03 0.02 0.02 0.02 0.03 0.02 0.02 0.02 0.02 0.01 0.02 0.01 0.02 0.01 0.01 0.01 0.01 0.01 0.01 0.01 0.01 0.01 0.02 0.02 0.01 0.02 0.03 0.02 0.01 0.01 0.01 0.02 0.02 0.01 0.02 0.02 0.03 0.03 0.03 0.02 0.02
0.02 0.04 0.05 0.04 0.03 0.03 0.03 0.03 0.02 0.02 0.02 0.01 0.01 0.01 0.01 0.01 0.01 0.01 0.01 0.01 0.01 0.01 0.01 0.01 0.01 0.02 0.02 0.02 0.02 0.02 0.02 0.02 0.02 0.02 0.02 0.02 0.02 0.02 0.03 0.03 0.03 0.02 0.02
0.02 0.02 0.03 0.05 0.05 0.04 0.04 0.05 0.04 0.03 0.02 0.01 0.01 0.01 0.01 0.01 0.02 0.02 0.02 0.02 0.02 0.01 0.01 0.01 0.01 0.01 0.01 0.01 0.01 0.01 0.02 0.04 0.04 0.02 0.02 0.02 0.03 0.03 0.02 0.02 0.02 0.03 0.02
0.03 0.03 0.03 0.04 0.05 0.08 0.07 0.06 0.07 0.05 0.04 0.03 0.02 0.02 0.01 0.01 0.02 0.02 0.02 0.01 0.01 0.00 0.00 0.00 0.00 0.00 0.01 0.01 0.01 0.01 0.02 0.03 0.04 0.03 0.02 0.03 0.03 0.02 0.01 0.01 0.01 0.02 0.02
0.02 0.02 0.02 0.02 0.03 0.05 0.08 0.09 0.07 0.05 0.05 0.05 0.04 0.03 0.02 0.02 0.02 0.02 0.01 0.01 0.01 0.01 0.01 0.00 0.00 0.00 0.00 0.01 0.01 0.01 0.01 0.02 0.02 0.03 0.03 0.03 0.03 0.02 0.02 0.01 0.01 0.01 0.01
0.02 0.02 0.02 0.02 0.03 0.04 0.06 0.08 0.09 0.08 0.07 0.06 0.05 0.04 0.02 0.01 0.02 0.02 0.02 0.01 0.01 0.02 0.01 0.00 0.00 0.00 0.01 0.01 0.01 0.01 0.01 0.02 0.02 0.03 0.03 0.04 0.03 0.02 0.01 0.01 0.01 0.02 0.02
0.02 0.02 0.02 0.02 0.02 0.02 0.03 0.05 0.07 0.07 0.07 0.05 0.04 0.04 0.04 0.03 0.03 0.03 0.03 0.03 0.02 0.03 0.02 0.01 0.00 0.00 0.01 0.01 0.01 0.01 0.01 0.02 0.02 0.02 0.02 0.03 0.02 0.02 0.01 0.01 0.01 0.01 0.01
0.02 0.02 0.02 0.02 0.03 0.03 0.03 0.04 0.06 0.07 0.05 0.04 0.03 0.03 0.03 0.03 0.04 0.04 0.04 0.04 0.02 0.01 0.01 0.00 0.00 0.00 0.00 0.00 0.01 0.00 0.01 0.01 0.02 0.01 0.01 0.01 0.01 0.01 0.01 0.02 0.01 0.01 0.01
0.01 0.01 0.02 0.03 0.04 0.03 0.04 0.04 0.04 0.06 0.06 0.05 0.04 0.03 0.03 0.03 0.03 0.03 0.03 0.02 0.01 0.01 0.02 0.01 0.01 0.01 0.00 0.00 0.00 0.01 0.01 0.02 0.01 0.01 0.01 0.01 0.01 0.02 0.02 0.02 0.02 0.02 0.02
0.01 0.02 0.02 0.02 0.02 0.03 0.03 0.03 0.04 0.04 0.06 0.06 0.05 0.04 0.04 0.03 0.02 0.02 0.02 0.01 0.01 0.01 0.01 0.01 0.01 0.01 0.01 0.01 0.01 0.01 0.01 0.02 0.02 0.02 0.02 0.02 0.02 0.02 0.02 0.02 0.02 0.02 0.01
0.01 0.02 0.03 0.05 0.05 0.05 0.04 0.04 0.03 0.03 0.05 0.05 0.04 0.04 0.04 0.03 0.03 0.02 0.02 0.02 0.02 0.02 0.01 0.01 0.01 0.01 0.01 0.01 0.01 0.01 0.01 0.01 0.01 0.02 0.02 0.02 0.02 0.02 0.02 0.02 0.02 0.02 0.02
0.01 0.01 0.03 0.04 0.04 0.04 0.04 0.03 0.03 0.04 0.04 0.03 0.03 0.03 0.04 0.04 0.05 0.04 0.03 0.03 0.03 0.03 0.02 0.01 0.01 0.01 0.01 0.01 0.01 0.01 0.02 0.01 0.02 0.02 0.02 0.02 0.02 0.02 0.02 0.02 0.02 0.02 0.02
0.01 0.01 0.01 0.02 0.02 0.01 0.02 0.02 0.02 0.02 0.02 0.02 0.02 0.02 0.02 0.02 0.03 0.04 0.04 0.03 0.03 0.03 0.03 0.03 0.02 0.02 0.02 0.02 0.02 0.02 0.02 0.02 0.02 0.02 0.03 0.03 0.03 0.02 0.02 0.02 0.02 0.02 0.02
0.01 0.01 0.01 0.02 0.01 0.01 0.01 0.01 0.01 0.01 0.01 0.02 0.03 0.03 0.03 0.02 0.02 0.03 0.04 0.04 0.03 0.03 0.03 0.03 0.02 0.02 0.02 0.02 0.03 0.03 0.03 0.03 0.03 0.03 0.04 0.04 0.04 0.03 0.03 0.03 0.03 0.03 0.03
0.01 0.01 0.02 0.02 0.02 0.02 0.01 0.01 0.01 0.01 0.01 0.02 0.02 0.04 0.05 0.05 0.05 0.05 0.05 0.05 0.04 0.03 0.03 0.03 0.03 0.03 0.03 0.03 0.03 0.04 0.04 0.05 0.04 0.04 0.04 0.04 0.04 0.04 0.04 0.04 0.04 0.04 0.03
0.01 0.02 0.02 0.02 0.03 0.02 0.02 0.01 0.01 0.02 0.02 0.02 0.02 0.03 0.03 0.05 0.07 0.09 0.08 0.08 0.07 0.05 0.04 0.05 0.05 0.04 0.04 0.04 0.03 0.04 0.04 0.04 0.03 0.03 0.03 0.03 0.04 0.06 0.07 0.07 0.05 0.05 0.05

GEFSGL_prec_meanprec_306.txt.gz
QPF
0.04 0.05 0.04 0.03 0.02 0.02 0.01 0.01 0.01 0.01 0.02 0.02 0.02 0.02 0.03 0.03 0.03 0.03 0.02 0.03 0.03 0.04 0.04 0.03 0.03 0.03 0.03 0.02 0.02 0.02 0.03 0.03 0.02 0.01 0.01 0.01 0.02 0.01 0.01 0.02 0.02 0.03 0.04
0.03 0.04 0.04 0.03 0.02 0.01 0.01 0.00 0.00 0.01 0.01 0.01 0.01 0.01 0.01 0.02 0.03 0.02 0.02 0.02 0.02 0.02 0.03 0.03 0.02 0.02 0.02 0.02 0.03 0.03 0.03 0.04 0.03 0.02 0.01 0.01 0.02 0.01 0.02 0.02 0.02 0.02 0.03
0.02 0.02 0.02 0.02 0.02 0.02 0.01 0.01 0.01 0.01 0.01 0.01 0.01 0.01 0.01 0.01 0.02 0.02 0.02 0.02 0.02 0.02 0.02 0.02 0.02 0.01 0.01 0.02 0.03 0.02 0.02 0.02 0.03 0.03 0.01 0.01 0.01 0.01 0.02 0.02 0.03 0.04 0.03
0.02 0.01 0.01 0.01 0.02 0.01 0.01 0.01 0.01 0.01 0.01 0.01 0.01 0.01 0.01 0.01 0.01 0.01 0.01 0.01 0.02 0.02 0.02 0.01 0.02 0.02 0.01 0.02 0.02 0.02 0.02 0.02 0.03 0.03 0.02 0.02 0.02 0.02 0.02 0.02 0.03 0.04 0.03
0.01 0.01 0.01 0.01 0.01 0.01 0.00 0.00 0.01 0.01 0.01 0.01 0.02 0.01 0.01 0.01 0.00 0.01 0.01 0.01 0.01 0.01 0.01 0.01 0.01 0.01 0.01 0.01 0.02 0.02 0.02 0.02 0.02 0.03 0.02 0.03 0.03 0.03 0.03 0.02 0.03 0.04 0.04
0.01 0.01 0.01 0.01 0.01 0.01 0.01 0.01 0.01 0.01 0.01 0.01 0.01 0.02 0.01 0.01 0.01 0.01 0.01 0.01 0.01 0.01 0.02 0.02 0.02 0.01 0.01 0.01 0.01 0.01 0.02 0.02 0.03 0.03 0.03 0.03 0.03 0.03 0.03 0.03 0.03 0.04 0.04
0.01 0.01 0.01 0.02 0.01 0.02 0.01 0.01 0.02 0.02 0.01 0.02 0.02 0.02 0.01 0.02 0.01 0.01 0.01 0.01 0.01 0.01 0.02 0.02 0.02 0.02 0.02 0.01 0.01 0.01 0.01 0.02 0.02 0.02 0.02 0.02 0.02 0.03 0.03 0.03 0.04 0.04 0.05
0.00 0.00 0.01 0.03 0.03 0.03 0.02 0.01 0.02 0.02 0.01 0.01 0.01 0.02 0.01 0.01 0.01 0.01 0.01 0.01 0.01 0.01 0.01 0.01 0.01 0.02 0.03 0.02 0.01 0.01 0.01 0.02 0.03 0.02 0.01 0.02 0.02 0.03 0.03 0.03 0.03 0.04 0.05
0.00 0.01 0.01 0.01 0.02 0.02 0.01 0.01 0.01 0.01 0.01 0.01 0.01 0.01 0.01 0.01 0.01 0.02 0.02 0.01 0.01 0.01 0.01 0.01 0.01 0.01 0.02 0.02 0.01 0.01 0.01 0.02 0.02 0.02 0.01 0.01 0.01 0.02 0.02 0.03 0.03 0.04 0.06
0.01 0.01 0.01 0.00 0.01 0.00 0.00 0.01 0.01 0.01 0.01 0.01 0.01 0.01 0.02 0.02 0.02 0.02 0.02 0.01 0.01 0.01 0.02 0.01 0.01 0.01 0.02 0.01 0.00 0.00 0.01 0.01 0.01 0.01 0.02 0.02 0.02 0.02 0.03 0.03 0.03 0.04 0.05
0.00 0.00 0.00 0.00 0.00 0.00 0.00 0.01 0.01 0.01 0.01 0.01 0.01 0.01 0.01 0.01 0.01 0.01 0.01 0.01 0.01 0.02 0.01 0.01 0.01 0.02 0.02 0.02 0.02 0.02 0.02 0.03 0.03 0.03 0.04 0.04 0.03 0.03 0.03 0.03 0.04 0.04 0.04
0.00 0.00 0.00 0.00 0.00 0.00 0.00 0.01 0.01 0.01 0.01 0.01 0.01 0.01 0.01 0.01 0.01 0.01 0.00 0.01 0.01 0.01 0.01 0.01 0.01 0.01 0.01 0.01 0.02 0.02 0.02 0.02 0.02 0.02 0.02 0.03 0.02 0.02 0.03 0.04 0.04 0.03 0.05
0.01 0.01 0.01 0.00 0.00 0.00 0.01 0.01 0.01 0.01 0.01 0.01 0.01 0.01 0.01 0.00 0.01 0.01 0.01 0.00 0.00 0.01 0.01 0.01 0.01 0.01 0.01 0.01 0.01 0.02 0.02 0.01 0.01 0.01 0.02 0.02 0.03 0.04 0.04 0.03 0.04 0.03 0.04
0.02 0.02 0.02 0.01 0.01 0.01 0.01 0.01 0.01 0.01 0.01 0.01 0.01 0.01 0.01 0.01 0.01 0.01 0.01 0.01 0.01 0.00 0.00 0.01 0.01 0.01 0.01 0.01 0.01 0.02 0.03 0.02 0.02 0.01 0.02 0.03 0.02 0.03 0.02 0.02 0.03 0.04 0.04
0.01 0.02 0.03 0.03 0.02 0.02 0.01 0.01 0.01 0.01 0.01 0.01 0.01 0.01 0.01 0.01 0.02 0.02 0.01 0.02 0.02 0.02 0.02 0.01 0.01 0.01 0.01 0.01 0.01 0.01 0.01 0.01 0.02 0.03 0.04 0.04 0.04 0.03 0.02 0.01 0.02 0.02 0.03
0.01 0.02 0.02 0.02 0.02 0.01 0.01 0.01 0.01 0.01 0.01 0.01 0.01 0.01 0.01 0.02 0.02 0.02 0.02 0.03 0.03 0.03 0.03 0.01 0.02 0.02 0.01 0.01 0.01 0.00 0.00 0.01 0.01 0.03 0.04 0.04 0.04 0.04 0.03 0.02 0.02 0.02 0.03
0.01 0.01 0.01 0.01 0.01 0.01 0.01 0.01 0.01 0.01 0.01 0.01 0.01 0.02 0.03 0.03 0.03 0.03 0.03 0.03 0.04 0.04 0.02 0.01 0.01 0.01 0.01 0.01 0.01 0.01 0.00 0.01 0.01 0.01 0.02 0.03 0.04 0.04 0.04 0.03 0.01 0.01 0.02
0.01 0.01 0.01 0.01 0.01 0.01 0.01 0.01 0.01 0.01 0.01 0.01 0.02 0.02 0.02 0.03 0.03 0.04 0.04 0.04 0.03 0.03 0.02 0.02 0.01 0.01 0.01 0.01 0.01 0.01 0.01 0.01 0.01 0.01 0.01 0.01 0.02 0.02 0.02 0.02 0.01 0.01 0.01
0.00 0.00 0.00 0.00 0.01 0.01 0.01 0.01 0.01 0.01 0.01 0.02 0.02 0.03 0.03 0.02 0.03 0.03 0.03 0.03 0.03 0.03 0.03 0.02 0.02 0.02 0.02 0.03 0.02 0.02 0.01 0.01 0.01 0.01 0.01 0.02 0.02 0.02 0.02 0.01 0.01 0.02 0.02
0.00 0.00 0.00 0.00 0.01 0.00 0.01 0.01 0.01 0.01 0.02 0.03 0.04 0.04 0.04 0.03 0.02 0.02 0.02 0.02 0.03 0.03 0.02 0.02 0.02 0.02 0.02 0.03 0.03 0.02 0.02 0.02 0.02 0.02 0.02 0.02 0.02 0.02 0.02 0.02 0.02 0.02 0.02
0.00 0.00 0.00 0.00 0.00 0.01 0.01 0.01 0.01 0.01 0.02 0.04 0.05 0.06 0.05 0.04 0.03 0.03 0.03 0.02 0.02 0.02 0.03 0.02 0.02 0.01 0.01 0.02 0.03 0.03 0.02 0.01 0.02 0.03 0.03 0.03 0.03 0.03 0.02 0.02 0.02 0.03 0.03
0.01 0.00 0.00 0.00 0.00 0.00 0.01 0.01 0.02 0.02 0.03 0.04 0.05 0.05 0.05 0.05 0.04 0.04 0.03 0.03 0.02 0.02 0.02 0.02 0.02 0.02 0.01 0.02 0.02 0.03 0.02 0.01 0.01 0.02 0.03 0.03 0.03 0.03 0.03 0.03 0.03 0.04 0.04
0.01 0.01 0.01 0.01 0.00 0.01 0.01 0.01 0.02 0.03 0.03 0.04 0.04 0.03 0.04 0.04 0.05 0.05 0.04 0.03 0.02 0.02 0.03 0.03 0.02 0.02 0.02 0.02 0.02 0.02 0.02 0.02 0.02 0.03 0.03 0.03 0.03 0.04 0.04 0.04 0.03 0.03 0.04
0.00 0.01 0.01 0.01 0.01 0.01 0.01 0.02 0.02 0.02 0.03 0.03 0.03 0.03 0.03 0.03 0.04 0.04 0.04 0.03 0.02 0.02 0.03 0.02 0.02 0.01 0.01 0.01 0.01 0.02 0.02 0.02 0.03 0.02 0.02 0.03 0.03 0.04 0.04 0.03 0.03 0.03 0.03
0.01 0.01 0.01 0.01 0.01 0.01 0.01 0.01 0.01 0.01 0.01 0.02 0.02 0.02 0.02 0.03 0.03 0.03 0.03 0.04 0.03 0.03 0.02 0.02 0.02 0.02 0.01 0.01 0.01 0.02 0.02 0.02 0.02 0.02 0.02 0.03 0.03 0.03 0.04 0.04 0.03 0.03 0.04
0.01 0.01 0.01 0.01 0.01 0.02 0.02 0.01 0.02 0.02 0.02 0.01 0.01 0.02 0.03 0.03 0.04 0.04 0.04 0.04 0.03 0.03 0.03 0.02 0.02 0.01 0.01 0.01 0.02 0.02 0.03 0.03 0.02 0.03 0.03 0.02 0.02 0.02 0.04 0.06 0.06 0.05 0.05

GEFSGL_prec_meanprec_312.txt.gz
QPF
0.02 0.03 0.04 0.05 0.07 0.07 0.04 0.03 0.03 0.03 0.03 0.03 0.04 0.03 0.03 0.03 0.03 0.03 0.03 0.03 0.04 0.03 0.03 0.03 0.04 0.06 0.05 0.03 0.03 0.04 0.04 0.04 0.05 0.03 0.02 0.02 0.02 0.02 0.02 0.03 0.02 0.04 0.03
0.03 0.03 0.03 0.04 0.04 0.04 0.04 0.03 0.03 0.04 0.03 0.02 0.03 0.03 0.03 0.03 0.02 0.02 0.02 0.03 0.04 0.03 0.03 0.03 0.04 0.05 0.05 0.04 0.04 0.03 0.03 0.05 0.06 0.04 0.03 0.02 0.02 0.03 0.03 0.03 0.03 0.03 0.03
0.05 0.03 0.02 0.04 0.05 0.04 0.04 0.04 0.04 0.03 0.03 0.03 0.03 0.03 0.03 0.03 0.02 0.02 0.02 0.02 0.03 0.03 0.03 0.03 0.04 0.05 0.06 0.06 0.05 0.04 0.03 0.03 0.05 0.06 0.04 0.04 0.03 0.03 0.04 0.04 0.04 0.04 0.03
0.06 0.05 0.05 0.05 0.05 0.04 0.04 0.04 0.04 0.03 0.02 0.02 0.03 0.03 0.02 0.03 0.02 0.02 0.02 0.02 0.03 0.04 0.04 0.04 0.04 0.05 0.05 0.05 0.05 0.04 0.04 0.05 0.06 0.06 0.05 0.06 0.05 0.05 0.06 0.05 0.05 0.04 0.03
0.04 0.05 0.05 0.04 0.05 0.05 0.05 0.04 0.04 0.03 0.02 0.03 0.03 0.03 0.02 0.02 0.02 0.02 0.02 0.02 0.03 0.03 0.03 0.03 0.03 0.04 0.04 0.03 0.03 0.03 0.04 0.05 0.05 0.05 0.06 0.06 0.05 0.05 0.04 0.05 0.06 0.05 0.04
0.03 0.03 0.03 0.02 0.02 0.03 0.03 0.04 0.04 0.03 0.04 0.04 0.03 0.03 0.02 0.01 0.01 0.01 0.01 0.02 0.02 0.02 0.03 0.03 0.03 0.03 0.02 0.02 0.02 0.02 0.02 0.03 0.04 0.05 0.05 0.05 0.05 0.07 0.08 0.08 0.07 0.05 0.04
0.02 0.01 0.01 0.02 0.01 0.02 0.02 0.02 0.02 0.03 0.03 0.04 0.03 0.03 0.02 0.01 0.01 0.01 0.01 0.01 0.01 0.02 0.03 0.03 0.01 0.01 0.01 0.02 0.02 0.02 0.02 0.02 0.02 0.03 0.04 0.04 0.04 0.06 0.08 0.07 0.07 0.07 0.05
0.01 0.00 0.01 0.01 0.01 0.01 0.01 0.01 0.01 0.02 0.03 0.03 0.03 0.03 0.03 0.01 0.01 0.01 0.01 0.01 0.01 0.01 0.01 0.01 0.01 0.02 0.01 0.02 0.03 0.02 0.02 0.02 0.02 0.02 0.03 0.03 0.03 0.03 0.04 0.04 0.05 0.06 0.05
0.00 0.00 0.00 0.01 0.01 0.01 0.00 0.01 0.01 0.02 0.02 0.03 0.03 0.03 0.03 0.02 0.02 0.02 0.02 0.01 0.01 0.00 0.00 0.00 0.01 0.02 0.02 0.02 0.02 0.01 0.02 0.03 0.03 0.04 0.03 0.02 0.02 0.03 0.04 0.04 0.04 0.04 0.04
0.00 0.00 0.00 0.00 0.01 0.01 0.01 0.01 0.01 0.01 0.01 0.01 0.01 0.01 0.02 0.02 0.02 0.02 0.02 0.01 0.01 0.00 0.01 0.01 0.01 0.02 0.03 0.02 0.03 0.03 0.03 0.05 0.06 0.05 0.04 0.04 0.03 0.03 0.04 0.04 0.05 0.05 0.04
0.00 0.00 0.00 0.00 0.01 0.01 0.01 0.01 0.02 0.01 0.01 0.01 0.01 0.01 0.01 0.01 0.02 0.02 0.02 0.01 0.01 0.01 0.01 0.01 0.01 0.02 0.02 0.02 0.03 0.03 0.04 0.05 0.05 0.05 0.05 0.04 0.02 0.02 0.02 0.02 0.03 0.04 0.04
0.00 0.00 0.00 0.00 0.01 0.01 0.02 0.02 0.02 0.02 0.02 0.02 0.02 0.02 0.01 0.01 0.01 0.01 0.02 0.02 0.01 0.02 0.02 0.01 0.01 0.02 0.02 0.02 0.02 0.02 0.02 0.02 0.03 0.04 0.04 0.04 0.03 0.03 0.02 0.02 0.02 0.03 0.04
0.00 0.00 0.00 0.00 0.00 0.01 0.01 0.02 0.02 0.02 0.02 0.02 0.02 0.02 0.02 0.02 0.02 0.02 0.03 0.03 0.02 0.02 0.01 0.02 0.03 0.03 0.03 0.03 0.03 0.02 0.02 0.02 0.03 0.04 0.04 0.03 0.03 0.03 0.03 0.03 0.04 0.06 0.05
0.01 0.01 0.01 0.01 0.01 0.01 0.01 0.01 0.02 0.02 0.03 0.03 0.03 0.02 0.02 0.02 0.02 0.03 0.03 0.02 0.03 0.02 0.02 0.02 0.03 0.03 0.03 0.02 0.03 0.03 0.03 0.03 0.03 0.03 0.03 0.02 0.03 0.04 0.05 0.05 0.06 0.06 0.05
0.01 0.01 0.01 0.01 0.01 0.02 0.02 0.02 0.03 0.03 0.04 0.05 0.04 0.03 0.02 0.02 0.02 0.03 0.03 0.03 0.03 0.02 0.02 0.02 0.03 0.03 0.03 0.04 0.04 0.04 0.03 0.03 0.02 0.02 0.02 0.02 0.02 0.04 0.05 0.04 0.04 0.05 0.03
0.04 0.04 0.04 0.05 0.05 0.05 0.06 0.06 0.05 0.04 0.04 0.03 0.03 0.02 0.02 0.01 0.02 0.03 0.03 0.04 0.04 0.03 0.03 0.02 0.04 0.05 0.04 0.05 0.06 0.06 0.04 0.02 0.02 0.02 0.02 0.02 0.02 0.04 0.05 0.05 0.04 0.04 0.04
0.05 0.05 0.05 0.06 0.06 0.06 0.06 0.05 0.04 0.03 0.03 0.02 0.02 0.01 0.01 0.01 0.01 0.02 0.03 0.03 0.03 0.04 0.04 0.03 0.05 0.06 0.06 0.06 0.06 0.06 0.05 0.03 0.03 0.03 0.03 0.03 0.03 0.03 0.03 0.03 0.03 0.03 0.04
0.04 0.04 0.05 0.05 0.04 0.03 0.03 0.04 0.03 0.03 0.03 0.02 0.01 0.01 0.01 0.01 0.02 0.02 0.02 0.02 0.03 0.03 0.03 0.05 0.07 0.08 0.08 0.08 0.08 0.07 0.06 0.05 0.04 0.03 0.03 0.03 0.03 0.02 0.02 0.02 0.03 0.03 0.03
0.03 0.03 0.02 0.03 0.02 0.01 0.02 0.02 0.02 0.02 0.02 0.01 0.01 0.01 0.01 0.01 0.01 0.01 0.02 0.02 0.02 0.03 0.03 0.05 0.07 0.07 0.07 0.06 0.06 0.05 0.06 0.06 0.06 0.07 0.06 0.05 0.03 0.03 0.03 0.03 0.04 0.04 0.04
0.05 0.04 0.02 0.01 0.01 0.01 0.02 0.02 0.02 0.02 0.02 0.02 0.03 0.03 0.03 0.02 0.01 0.01 0.01 0.01 0.02 0.03 0.04 0.04 0.04 0.04 0.05 0.05 0.05 0.04 0.03 0.03 0.03 0.04 0.04 0.03 0.03 0.04 0.04 0.04 0.04 0.04 0.04
0.05 0.05 0.04 0.02 0.01 0.01 0.01 0.02 0.02 0.04 0.04 0.04 0.04 0.04 0.03 0.02 0.01 0.01 0.00 0.01 0.01 0.01 0.02 0.03 0.04 0.03 0.02 0.03 0.04 0.04 0.03 0.03 0.03 0.03 0.03 0.03 0.04 0.05 0.05 0.05 0.04 0.04 0.04
0.03 0.05 0.06 0.04 0.03 0.02 0.02 0.02 0.02 0.03 0.03 0.03 0.04 0.04 0.03 0.02 0.01 0.01 0.02 0.02 0.02 0.02 0.02 0.02 0.03 0.03 0.03 0.02 0.03 0.04 0.05 0.04 0.05 0.05 0.05 0.05 0.05 0.06 0.06 0.06 0.06 0.05 0.04
0.03 0.04 0.04 0.05 0.05 0.04 0.04 0.03 0.03 0.03 0.02 0.02 0.01 0.01 0.02 0.02 0.03 0.03 0.03 0.04 0.04 0.04 0.04 0.03 0.04 0.03 0.02 0.02 0.02 0.03 0.04 0.03 0.03 0.03 0.04 0.05 0.05 0.05 0.05 0.07 0.06 0.05 0.04
0.03 0.04 0.04 0.04 0.05 0.06 0.06 0.05 0.04 0.03 0.03 0.02 0.01 0.02 0.03 0.03 0.03 0.03 0.03 0.03 0.04 0.04 0.05 0.05 0.04 0.03 0.03 0.02 0.02 0.02 0.02 0.02 0.02 0.02 0.02 0.03 0.04 0.05 0.06 0.06 0.06 0.04 0.04
0.02 0.03 0.04 0.04 0.04 0.05 0.05 0.04 0.05 0.05 0.04 0.04 0.03 0.04 0.04 0.04 0.03 0.03 0.03 0.03 0.04 0.03 0.04 0.05 0.05 0.04 0.04 0.03 0.03 0.02 0.03 0.03 0.03 0.03 0.02 0.02 0.03 0.04 0.05 0.05 0.05 0.05 0.04
0.02 0.02 0.02 0.02 0.03 0.03 0.03 0.04 0.05 0.05 0.06 0.06 0.06 0.05 0.04 0.04 0.04 0.03 0.03 0.03 0.04 0.04 0.04 0.05 0.06 0.05 0.04 0.04 0.04 0.04 0.04 0.04 0.04 0.03 0.04 0.03 0.03 0.03 0.03 0.03 0.04 0.04 0.03

GEFSGL_prec_meanprec_318.txt.gz
QPF
0.02 0.02 0.02 0.02 0.02 0.03 0.04 0.05 0.06 0.07 0.07 0.06 0.03 0.02 0.02 0.03 0.02 0.01 0.01 0.01 0.01 0.02 0.02 0.02 0.02 0.02 0.02 0.01 0.01 0.03 0.04 0.04 0.03 0.02 0.02 0.02 0.02 0.03 0.04 0.04 0.05 0.07 0.08
0.03 0.03 0.03 0.03 0.03 0.05 0.05 0.06 0.08 0.09 0.09 0.06 0.03 0.03 0.03 0.03 0.02 0.02 0.02 0.01 0.01 0.02 0.02 0.02 0.01 0.02 0.02 0.02 0.02 0.02 0.02 0.03 0.02 0.02 0.01 0.02 0.02 0.02 0.04 0.04 0.04 0.06 0.06
0.07 0.05 0.05 0.04 0.06 0.05 0.04 0.04 0.05 0.05 0.04 0.03 0.03 0.03 0.03 0.03 0.02 0.01 0.01 0.02 0.02 0.01 0.01 0.01 0.01 0.02 0.02 0.02 0.02 0.01 0.01 0.01 0.02 0.02 0.01 0.02 0.03 0.03 0.03 0.03 0.03 0.03 0.03
0.06 0.09 0.10 0.07 0.05 0.02 0.02 0.03 0.04 0.05 0.03 0.02 0.02 0.01 0.02 0.02 0.03 0.02 0.01 0.01 0.01 0.01 0.01 0.02 0.02 0.01 0.01 0.01 0.01 0.01 0.02 0.02 0.02 0.02 0.01 0.02 0.02 0.02 0.03 0.02 0.02 0.02 0.02
0.04 0.04 0.03 0.03 0.02 0.02 0.02 0.03 0.03 0.03 0.02 0.03 0.02 0.01 0.01 0.01 0.02 0.02 0.01 0.01 0.01 0.01 0.02 0.01 0.01 0.01 0.01 0.01 0.01 0.02 0.03 0.03 0.02 0.02 0.02 0.02 0.02 0.01 0.01 0.02 0.02 0.03 0.03
0.01 0.01 0.01 0.01 0.01 0.01 0.01 0.03 0.03 0.02 0.02 0.02 0.01 0.01 0.01 0.01 0.01 0.02 0.01 0.01 0.00 0.01 0.01 0.00 0.00 0.01 0.00 0.00 0.01 0.01 0.02 0.02 0.02 0.02 0.02 0.02 0.02 0.01 0.01 0.03 0.04 0.05 0.05
0.01 0.01 0.01 0.01 0.01 0.01 0.01 0.01 0.01 0.01 0.02 0.02 0.01 0.02 0.02 0.01 0.02 0.03 0.03 0.01 0.01 0.01 0.00 0.00 0.00 0.01 0.01 0.00 0.01 0.01 0.02 0.03 0.02 0.02 0.02 0.01 0.02 0.02 0.02 0.03 0.06 0.07 0.06
0.01 0.01 0.01 0.01 0.01 0.01 0.01 0.01 0.01 0.01 0.02 0.02 0.02 0.02 0.02 0.02 0.03 0.03 0.04 0.03 0.01 0.00 0.00 0.00 0.01 0.02 0.02 0.01 0.02 0.02 0.01 0.01 0.01 0.02 0.02 0.02 0.02 0.02 0.01 0.02 0.04 0.04 0.03
0.00 0.01 0.01 0.01 0.01 0.01 0.01 0.01 0.01 0.01 0.01 0.02 0.01 0.01 0.02 0.01 0.02 0.03 0.05 0.04 0.02 0.02 0.01 0.01 0.02 0.02 0.02 0.02 0.01 0.01 0.01 0.00 0.02 0.03 0.02 0.02 0.02 0.02 0.03 0.04 0.04 0.05 0.04
0.00 0.01 0.01 0.01 0.01 0.01 0.00 0.01 0.01 0.01 0.01 0.01 0.01 0.02 0.02 0.01 0.02 0.03 0.04 0.04 0.03 0.03 0.02 0.02 0.03 0.03 0.03 0.03 0.02 0.01 0.00 0.01 0.02 0.02 0.01 0.01 0.02 0.03 0.04 0.04 0.04 0.05 0.05
0.01 0.00 0.00 0.00 0.00 0.01 0.01 0.01 0.01 0.01 0.02 0.03 0.04 0.04 0.03 0.02 0.02 0.03 0.03 0.02 0.02 0.03 0.02 0.02 0.03 0.03 0.03 0.02 0.03 0.02 0.01 0.03 0.03 0.03 0.02 0.02 0.02 0.03 0.03 0.02 0.02 0.03 0.03
0.01 0.01 0.01 0.01 0.01 0.01 0.01 0.01 0.02 0.03 0.04 0.05 0.05 0.04 0.03 0.03 0.03 0.02 0.02 0.03 0.03 0.03 0.03 0.02 0.02 0.03 0.03 0.03 0.03 0.03 0.04 0.04 0.03 0.03 0.02 0.02 0.02 0.02 0.02 0.01 0.01 0.01 0.01
0.02 0.01 0.01 0.01 0.01 0.01 0.01 0.02 0.03 0.05 0.05 0.05 0.05 0.04 0.04 0.04 0.03 0.03 0.04 0.04 0.05 0.04 0.04 0.04 0.05 0.05 0.04 0.03 0.03 0.04 0.04 0.04 0.04 0.04 0.03 0.02 0.02 0.02 0.02 0.01 0.01 0.01 0.01
0.03 0.02 0.02 0.02 0.02 0.02 0.03 0.05 0.06 0.07 0.06 0.06 0.06 0.06 0.06 0.07 0.07 0.06 0.06 0.06 0.06 0.06 0.05 0.05 0.06 0.06 0.05 0.04 0.03 0.03 0.03 0.04 0.04 0.04 0.04 0.03 0.03 0.03 0.02 0.02 0.03 0.02 0.02
0.05 0.04 0.04 0.04 0.03 0.04 0.06 0.07 0.07 0.06 0.06 0.07 0.08 0.09 0.09 0.08 0.07 0.07 0.07 0.07 0.07 0.06 0.06 0.06 0.06 0.06 0.05 0.04 0.04 0.04 0.03 0.04 0.05 0.04 0.03 0.03 0.02 0.02 0.01 0.02 0.02 0.02 0.02
0.05 0.05 0.05 0.05 0.05 0.05 0.06 0.06 0.06 0.05 0.05 0.05 0.05 0.06 0.06 0.06 0.05 0.04 0.04 0.04 0.04 0.04 0.04 0.04 0.04 0.04 0.04 0.04 0.04 0.04 0.05 0.05 0.04 0.04 0.04 0.03 0.02 0.02 0.01 0.02 0.02 0.02 0.02
0.04 0.04 0.04 0.05 0.05 0.07 0.11 0.06 0.04 0.04 0.05 0.04 0.04 0.03 0.03 0.03 0.03 0.03 0.02 0.02 0.01 0.02 0.02 0.02 0.03 0.03 0.03 0.03 0.03 0.04 0.04 0.05 0.06 0.06 0.05 0.04 0.04 0.03 0.03 0.03 0.03 0.04 0.05
0.02 0.03 0.05 0.05 0.05 0.06 0.09 0.08 0.06 0.04 0.04 0.04 0.04 0.05 0.04 0.04 0.04 0.03 0.03 0.02 0.01 0.01 0.01 0.01 0.02 0.02 0.02 0.03 0.03 0.04 0.06 0.05 0.05 0.06 0.06 0.06 0.06 0.05 0.04 0.04 0.05 0.05 0.06
0.02 0.03 0.03 0.04 0.06 0.06 0.06 0.07 0.06 0.04 0.04 0.05 0.07 0.07 0.08 0.07 0.06 0.05 0.04 0.02 0.01 0.01 0.01 0.01 0.02 0.02 0.02 0.02 0.03 0.03 0.04 0.03 0.03 0.04 0.04 0.05 0.07 0.07 0.07 0.07 0.06 0.06 0.06
0.02 0.02 0.02 0.02 0.03 0.03 0.04 0.04 0.04 0.06 0.07 0.09 0.12 0.14 0.15 0.13 0.09 0.06 0.05 0.03 0.01 0.01 0.00 0.01 0.01 0.02 0.03 0.03 0.03 0.03 0.03 0.03 0.03 0.03 0.03 0.04 0.05 0.06 0.06 0.05 0.04 0.04 0.04
0.01 0.01 0.02 0.02 0.02 0.03 0.03 0.03 0.03 0.03 0.04 0.04 0.05 0.08 0.09 0.08 0.06 0.04 0.03 0.03 0.02 0.02 0.01 0.01 0.01 0.01 0.03 0.04 0.04 0.03 0.02 0.02 0.02 0.02 0.03 0.03 0.03 0.03 0.04 0.04 0.04 0.04 0.05
0.02 0.02 0.02 0.03 0.03 0.04 0.04 0.04 0.03 0.03 0.03 0.04 0.04 0.07 0.07 0.06 0.04 0.04 0.03 0.03 0.02 0.02 0.02 0.02 0.02 0.03 0.03 0.04 0.04 0.04 0.04 0.03 0.02 0.02 0.02 0.02 0.02 0.03 0.03 0.03 0.04 0.04 0.05
0.03 0.03 0.03 0.04 0.06 0.06 0.06 0.06 0.05 0.05 0.04 0.04 0.05 0.05 0.03 0.03 0.04 0.04 0.04 0.03 0.02 0.01 0.01 0.02 0.03 0.02 0.03 0.03 0.02 0.02 0.03 0.03 0.02 0.02 0.02 0.02 0.02 0.02 0.02 0.02 0.03 0.04 0.04
0.04 0.04 0.04 0.05 0.06 0.06 0.07 0.07 0.07 0.06 0.06 0.05 0.04 0.04 0.04 0.04 0.05 0.04 0.03 0.03 0.02 0.02 0.01 0.02 0.03 0.03 0.02 0.02 0.02 0.02 0.02 0.03 0.03 0.02 0.02 0.02 0.01 0.02 0.02 0.02 0.03 0.04 0.05
0.03 0.03 0.04 0.05 0.05 0.05 0.06 0.06 0.07 0.07 0.06 0.05 0.04 0.04 0.05 0.06 0.06 0.05 0.04 0.03 0.02 0.01 0.01 0.01 0.02 0.02 0.02 0.01 0.02 0.02 0.03 0.04 0.04 0.03 0.03 0.03 0.03 0.03 0.03 0.03 0.03 0.04 0.05
0.03 0.03 0.03 0.03 0.04 0.05 0.05 0.05 0.06 0.09 0.10 0.09 0.07 0.06 0.06 0.07 0.06 0.06 0.06 0.05 0.03 0.02 0.02 0.01 0.02 0.02 0.02 0.02 0.02 0.03 0.04 0.04 0.05 0.04 0.03 0.03 0.03 0.03 0.03 0.04 0.04 0.05 0.06